Flag for Switzerland Weather past 2 weeks in Martigny, Valais, Switzerland

Now
71 °F

Mild.


Feels Like: 75 °F
Forecast: 60 / 76 °F
Wind: 6 mph from West

Location: Sion

Current Time: Sep 20, 2014 at 8:29:28 PM

Latest Report: Sep 20, 2014 at 7:00 PM


Visibility: N/A

Pressure: 29.96 "Hg

Humidity: 63%

Dew point: 58 °F

Location of MartignyLocation

Historic Weather in Martigny — Graph

°F

Martigny temperature yesterday

Maximum temperature yesterday: 78 °F (at 4:00 PM)
Minimum temperature yesterday: 58 °F (at 7:00 AM)
Average temperature yesterday: 65 °F

Past Weeks' High & Low Weather Summary

 TemperatureHumidityPressure
High82 °F (Sep 8, 5:00 PM)98% (Sep 10, 12:00 AM)30.13 "Hg (Sep 10, 12:00 AM)
Low49 °F (Sep 13, 7:00 AM)40% (Sep 7, 4:00 PM)29.77 "Hg (Sep 6, 5:00 PM)
Average65 °F70%29.95 "Hg
* Reported Sep 5 3:00 PM — Sep 20 3:00 PM, Martigny, Weather by CustomWeather, © 2014

Note: Actual official high and low records may vary slightly from our data, if they occured in-between our weather recording intervals... More about our weather records

Advertising

Martigny weather history for previous 24 hours

 ConditionsComfort  
Time TempWeatherWind HumidityBarometerVisibility
3:00 PM
Sep 20
75 °FMild.14 mph55%29.94 "HgN/A
2:00 PM76 °FScattered clouds.9 mph46%29.95 "Hg19 mi
1:00 PM72 °FMild.3 mph49%29.98 "HgN/A
12:00 PM70 °FMild.3 mph56%30.00 "HgN/A
11:00 AM66 °FScattered clouds.5 mph65%30.02 "Hg19 mi
10:00 AM64 °FMild.3 mph69%30.02 "HgN/A
9:00 AM61 °FCool.3 mph76%30.02 "HgN/A
8:00 AM59 °FOvercast.1 mph86%30.03 "Hg16 mi
7:00 AM60 °FCool.2 mph85%30.03 "HgN/A
6:00 AM60 °FCool.3 mph79%30.01 "HgN/A
5:00 AM60 °FPassing clouds.5 mph80%30.02 "Hg9 mi
4:00 AM61 °FCool.3 mph80%30.05 "HgN/A
3:00 AM61 °FCool.5 mph79%30.05 "HgN/A
2:00 AM60 °FPassing clouds.5 mph81%30.05 "Hg12 mi
1:00 AM59 °FCool.3 mph85%30.04 "HgN/A
12:00 AM62 °FCool.2 mph81%30.04 "HgN/A
11:00 PM
Sep 19
62 °FPassing clouds.1 mph85%30.03 "Hg12 mi
10:00 PM65 °FMild.2 mph79%30.01 "HgN/A
9:00 PM67 °FMild.3 mph70%29.99 "HgN/A
8:00 PM68 °FOvercast.6 mph72%29.96 "Hg12 mi
Weather by CustomWeather, © 2014

See weather overviewHow to use our weather pages